{"data":{"norad_id":47259,"epoch":"2026-05-25T02:51:05.641056Z","epoch_age_seconds":54898,"freshness":"FRESH","line1":"1 47259U 20100B   26145.11881529  .00000374  00000+0  10048-2 0  9991","line2":"2 47259  87.8961 355.2459 0001618  88.2585 271.8728 13.12441815261535","mean_motion":13.12441815,"eccentricity":0.0001618,"inclination_deg":87.8961,"raan_deg":355.2459,"arg_perigee_deg":88.2585,"mean_anomaly_deg":271.8728,"bstar":0.0010048,"rev_number":26153,"period_min":109.71914972093,"perigee_km":1212.499497092,"apogee_km":1214.956224561,"semimajor_km":7591.8648608265,"source":"CELESTRAK","updated_at":"2026-05-25T13:38:22.377484Z"}}